EHI
0 0 0 0 0 0 0 0 0 0 0 0 0 0 0 0 0 0 0 0 0 0 0 0 0 0 0 0 0 0 0 0 0 0 0 0 0 0 0 0 0 0 0
0 0 0 0 0 0 0 0 0 0 0 0 0 0 0 0 0 0 0 0 0 0 0 0 0 0 0 0 0 0 0 0 0 0 0 0 0 0 0 0 0 0 0
0 0 0 0 0 0 0 0 0 0 0 0 0 0 0 0 0 0 0 0 0 0 0 0 0 0 0 0 0 0 0 0 0 0 0 0 0 0 0 0 0 0 0
0 0 0 0 0 0 0 0 0 0 0 0 0 0 0 0 0 0 0 0 0 0 0 0 0 0 0 0 0 0 0 0 0 0 0 0 0 0 0 0 0 0 0
0 0 0 0 0 0 0 0 0 0 0 0 0 0 0 0 0 0 0 0 0 0 0 0 0 0 0 0 0 0 0 0 0 0 0 0 0 0 0 0 0 0 0
0 0 0 0 0 0 0 0 0 0 0 0 0 0 0 0 0 0 0 0 0 0 0 0 0 0 0 0 0 0 0 0 0 0 0 0 0 0 0 0 0 0 0
0 0 0 0 0 0 0 0 0 0 0 0 0 0 0 0 0 0 0 0 0 0 0 0 0 0 0 0 0 0 0 0 0 0 0 0 0 0 0 0 0 0 0
0 0 0 0 0 0 0 0 0 0 0 0 0 0 0 0 0 0 0 0 0 0 0 0 0 0 0 0 0 0 0 0 0 0 0 0 0 0 0 0 0 0 0
0 0 0 0 0 0 0 0 0 0 0 0 0 0 0 0 0 0 0 0 0 0 0 0 0 0 0 0 0 0 0 0 0 0 0 0 0 0 0 0 0 0 0
0 0 0 0 0 0 0 0 0 0 0 0 0 0 0 0 0 0 0 0 0 0 0 0 0 0 0 0 0 0 0 0 0 0 0 0 0 0 0 0 0 0 0
0 0 0 0 0 0 0 0 0 0 0 0 0 0 0 0 0 0 0 0 0 0 0 0 0 0 0 0 0 0 0 0 0 0 0 0 0 0 0 0 0 0 0
0 0 0 0 0 0 0 0 0 0 0 0 0 0 0 0 0 0 0 0 0 0 0 0 0 0 0 0 0 0 0 0 0 0 0 0 0 0 0 0 0 0 0
0 0 0 0 0 0 0 0 0 0 0 0 0 0 0 0 0 0 0 0 0 0 0 0 0 0 0 0 0 0 0 0 0 0 0 0 0 0 0 0 0 0 0
0 0 0 0 0 0 0 0 0 0 0 0 0 0 0 0 0 0 0 0 0 0 0 0 0 0 0 0 0 0 0 0 0 0 0 0 0 0 0 0 0 0 0
0 0 0 0 0 0 0 0 0 0 0 0 0 0 0 0 0 0 0 0 0 0 0 0 0 0 0 0 0 0 0 0 0 0 0 0 0 0 0 0 0 0 0
0 0 0 0 0 0 0 0 0 0 0 0 0 0 0 0 0 0 0 0 0 0 0 0 0 0 0 0 0 0 0 0 0 0 0 0 0 0 0 0 0 0 0
0 0 0 0 0 0 0 0 0 0 0 0 0 0 0 0 0 0 0 0 0 0 0 0 0 0 0 0 0 0 0 0 0 0 0 0 0 0 0 0 0 0 0
0 0 0 0 0 0 0 0 0 0 0 0 0 0 0 0 0 0 0 0 0 0 0 0 0 0 0 0 0 0 0 0 0 0 0 0 0 0 0 0 0 0 0
0 0 0 0 0 0 0 0 0 0 0 0 0 0 0 0 0 0 0 0 0 0 0 0 0 0 0 0 0 0 0 0 0 0 0 0 0 0 0 0 0 0 0
0 0 0 0 0 0 0 0 0 0 0 0 0 0 0 0 0 0 0 0 0 0 0 0 0 0 0 0 0 0 0 0 0 0 0 0 0 0 0 0 0 0 0
0 0 0 0 0 0 0 0 0 0 0 0 0 0 0 0 0 0 0 0 0 0 0 0 0 0 0 0 0 0 0 0 0 0 0 0 0 0 0 0 0 0 0
0 0 0 0 0 0 0 0 0 0 0 0 0 0 0 0 0 0 0 0 0 0 0 0 0 0 0 0 0 0 0 0 0 0 0 0 0 0 0 0 0 0 0
0 0 0 0 0 0 0 0 0 0 0 0 0 0 0 0 0 0 0 0 0 0 0 0 0 0 0 0 0 0 0 0 0 0 0 0 0 0 0 0 0 0 0
0 0 0 0 0 0 0 0 0 0 0 0 0 0 0 0 0 0 0 0 0 0 0 0 0 0 0 0 0 0 0 0 0 0 0 0 0 0 0 0 0 0 0
0 0 0 0 0 0 0 0 0 0 0 0 0 0 0 0 0 0 0 0 0 0 0 0 0 0 0 0 0 0 0 0 0 0 0 0 0 0 0 0 0 0 0
0 0 0 0 0 0 0 0 0 0 0 0 0 0 0 0 0 0 0 0 0 0 0 0 0 0 0 0 0 0 0 0 0 0 0 0 0 0 0 0 0 0 0
Wind_Speed
5 4 3 3 3 3 3 3 3 3 3 3 2 3 2 2 1 1 2 4 4 3 3 3 3 3 4 4 5 5 6 7 7 8 9 9 10 11 11 12 12 13 13
6 5 4 4 3 3 3 3 3 3 2 2 2 2 2 1 1 1 1 2 4 4 3 2 3 3 3 3 4 5 6 7 8 8 9 10 10 11 11 12 12 13 13
7 6 5 4 3 3 4 3 3 3 2 2 2 1 1 1 0 0 1 1 2 4 4 3 3 3 4 4 5 5 6 7 8 8 9 10 11 11 12 12 13 13 14
8 6 5 4 4 4 4 4 3 3 2 2 1 0 0 0 0 1 0 1 1 1 3 4 5 5 5 5 6 6 7 8 9 9 10 11 11 12 13 13 14 15 15
9 7 5 5 5 4 3 4 2 2 2 2 1 0 0 0 1 1 1 1 1 1 1 3 5 6 6 7 7 8 8 9 10 10 11 12 12 13 14 15 15 16 17
9 7 6 6 6 5 4 3 3 2 2 2 1 1 1 1 1 1 1 1 1 1 1 1 2 4 6 7 8 9 9 10 11 11 12 13 14 15 15 16 17 17 18
10 8 6 6 6 6 6 6 4 3 2 2 2 2 2 1 1 1 1 1 1 1 1 1 1 1 3 7 8 9 10 11 12 12 13 14 15 15 16 17 18 18 19
11 9 9 7 7 6 6 6 5 3 2 2 3 2 2 3 2 1 1 1 1 1 1 1 1 1 2 2 5 9 10 12 13 14 14 15 16 17 17 18 19 19 20
11 10 10 9 8 8 7 7 6 6 4 2 2 3 2 3 3 2 1 1 1 1 2 1 1 1 2 2 3 6 10 11 13 14 15 16 17 18 18 19 19 20 20
12 11 11 10 9 7 8 7 6 5 5 4 2 1 2 3 1 2 3 1 1 2 2 1 1 1 1 1 3 7 9 11 13 14 15 16 18 19 19 20 20 20 21
11 12 12 11 10 8 9 8 7 6 5 5 4 3 2 1 1 2 3 3 2 1 1 1 1 1 1 2 2 5 9 11 12 14 15 16 18 19 20 20 20 20 20
9 12 12 11 11 9 9 9 8 8 6 5 4 4 4 3 3 3 3 3 3 2 1 0 1 1 1 1 3 7 9 10 12 13 14 15 17 18 19 19 20 20 20
9 13 12 11 10 9 9 8 8 8 7 7 6 4 3 3 3 3 2 2 2 2 1 1 1 1 1 1 2 7 8 10 11 12 13 14 15 16 17 18 19 20 20
11 12 13 12 11 10 10 9 7 7 7 7 7 6 4 3 3 3 3 3 1 2 2 2 1 1 1 1 3 6 5 9 11 12 12 13 14 15 16 17 18 18 19
9 11 13 12 11 11 11 10 7 8 7 7 6 6 4 3 3 3 2 3 3 2 3 2 1 1 1 1 4 2 3 9 11 11 12 13 14 15 16 16 17 18 18
11 12 13 12 11 11 11 10 8 8 8 7 5 6 5 3 3 3 3 2 3 3 3 2 1 1 1 2 4 3 3 9 10 11 12 13 14 15 15 16 17 17 17
12 13 13 13 12 12 11 10 9 9 9 8 7 7 6 5 4 3 3 3 2 3 3 2 1 0 1 2 3 3 3 3 5 11 12 13 14 14 15 16 16 17 17
13 13 13 13 12 12 12 12 11 10 10 10 9 8 7 5 5 4 3 3 3 3 3 3 1 0 1 1 2 3 4 4 4 9 12 13 13 14 15 15 16 17 17
12 12 13 13 13 12 12 11 11 11 10 10 9 9 8 7 6 4 4 4 3 2 2 2 1 0 1 1 2 3 4 3 5 6 10 11 13 14 14 15 16 16 16
13 13 13 12 12 12 11 11 10 10 9 8 8 8 8 8 8 7 5 5 4 3 2 1 1 0 1 1 2 3 4 4 4 4 7 9 11 13 15 15 15 15 16
12 12 12 11 11 10 10 12 11 10 10 8 7 6 6 7 8 7 5 5 5 3 2 1 1 0 1 1 2 2 3 4 4 2 5 5 5 4 7 11 13 15 16
11 12 12 12 11 9 14 17 14 10 10 9 8 6 6 7 8 9 8 8 7 5 4 3 1 1 1 1 1 2 2 3 4 3 4 5 3 4 5 4 12 15 15
12 12 12 12 12 12 18 19 17 11 9 9 9 8 6 6 8 6 7 8 6 5 5 4 3 2 1 1 0 1 1 2 3 4 3 4 3 4 5 7 14 14 15
11 11 11 12 11 12 18 19 18 10 8 8 8 9 9 8 7 9 7 6 4 3 4 3 3 2 1 1 1 0 1 2 3 3 1 3 4 5 6 5 10 14 16
10 9 11 12 11 12 18 19 17 9 8 8 7 8 9 8 12 13 9 7 5 4 5 7 6 5 5 4 4 2 2 3 3 2 1 2 4 6 5 3 6 14 17
9 9 9 10 11 11 18 20 18 9 9 7 6 7 10 10 14 14 8 8 7 4 4 4 5 5 4 4 5 2 1 1 2 3 2 3 3 5 6 4 4 6 7
Wind_Direction
145 141 133 125 120 114 113 110 106 104 98 94 100 112 111 99 79 33 358 19 27 27 48 54 50 49 40 32 28 22 14 9 5 2 359 357 354 351 349 346 346 344 342
151 149 145 140 135 132 128 126 125 118 109 108 107 114 121 114 88 44 10 4 10 5 3 19 19 16 8 7 6 1 357 353 351 350 347 344 343 341 339 337 337 336 334
156 154 153 154 151 139 129 117 110 104 108 106 106 109 116 133 131 28 14 6 354 358 356 348 343 342 342 344 345 344 342 340 338 337 336 336 334 332 330 329 328 326 325
159 156 160 165 153 140 134 132 124 113 112 118 122 105 85 115 243 267 317 327 345 348 348 343 335 330 330 329 329 330 329 328 328 328 328 328 327 326 324 323 323 321 319
165 162 167 165 152 143 144 146 128 131 141 140 136 86 345 301 275 284 274 281 292 316 331 333 335 331 326 323 323 323 322 321 322 322 323 322 322 321 320 319 318 318 317
170 166 166 163 154 149 152 148 136 122 132 139 104 43 336 307 296 276 266 282 288 296 315 327 338 330 326 322 320 319 318 318 318 318 318 318 317 317 317 317 316 316 315
173 172 170 164 164 166 167 155 138 133 123 122 88 14 340 324 278 268 262 264 280 282 287 289 301 306 317 322 321 319 319 319 318 318 318 317 316 316 314 313 314 314 314
178 179 174 174 171 164 162 163 148 138 134 144 127 100 341 332 319 286 277 248 264 282 283 284 278 285 292 306 316 322 321 321 320 319 320 319 316 314 313 313 314 314 314
182 182 180 175 174 172 176 176 167 156 157 171 155 147 157 241 300 315 293 277 272 274 278 278 270 277 286 288 301 317 320 319 319 319 320 319 317 316 315 316 316 317 317
184 184 180 179 178 178 177 179 175 164 152 166 173 152 158 163 171 310 315 302 277 261 265 270 280 290 297 296 306 313 320 320 320 321 321 321 320 318 318 318 318 319 319
187 186 183 182 182 183 181 176 172 174 169 165 166 158 149 123 157 178 278 306 317 282 258 259 277 295 308 310 301 317 322 320 319 321 322 322 321 321 320 320 320 321 322
188 189 186 186 186 184 182 180 178 179 180 171 167 163 163 167 184 181 224 263 283 289 299 296 286 297 316 317 315 329 325 322 323 325 325 325 323 323 323 323 324 323 323
190 192 188 188 186 185 181 176 176 181 180 179 179 181 181 183 164 166 183 233 262 285 304 297 280 311 336 326 314 336 327 324 328 328 328 328 327 327 326 326 325 325 325
192 184 187 188 185 181 179 177 177 182 181 185 186 182 182 192 177 173 172 172 247 294 293 275 326 354 327 326 335 345 329 329 332 330 330 332 331 330 328 327 327 326 326
180 179 184 185 183 180 178 176 181 182 179 187 187 185 187 188 179 181 170 166 176 246 275 270 293 340 336 339 349 349 328 331 335 332 332 334 334 333 332 331 330 327 326
177 176 180 181 179 179 178 177 178 179 179 184 180 181 187 181 173 170 172 171 176 191 241 257 239 292 350 356 356 352 330 341 335 331 333 335 335 334 335 333 330 328 328
178 179 180 179 180 180 179 180 182 178 181 181 178 181 188 176 173 174 166 165 178 176 222 261 248 329 359 347 343 343 337 335 330 331 334 335 336 337 336 335 334 333 332
181 179 176 177 180 180 180 181 182 181 182 183 181 179 185 172 176 170 167 175 183 182 191 236 255 287 313 335 334 333 340 340 323 328 338 339 340 341 339 337 335 334 334
177 175 175 178 180 180 180 183 181 180 183 183 179 180 181 171 179 172 167 171 175 163 168 187 229 252 320 346 340 332 331 326 328 332 340 341 339 342 342 340 338 339 340
176 176 178 179 179 177 177 176 175 175 176 176 175 176 175 177 181 174 169 171 158 148 144 153 187 276 301 336 336 328 332 335 326 330 338 337 339 346 345 342 341 341 341
177 174 173 174 173 173 175 172 171 170 168 165 162 164 167 166 166 162 158 163 154 149 142 141 149 41 300 333 326 318 317 324 314 328 328 321 324 328 335 336 337 336 339
171 169 172 173 174 176 172 169 166 167 165 163 157 152 148 149 150 148 148 149 150 150 157 151 164 211 258 276 288 327 323 338 317 330 330 311 320 321 322 317 328 337 340
169 170 172 172 175 174 169 168 165 160 160 160 156 153 147 145 141 135 132 124 122 120 133 149 158 194 224 236 236 317 311 306 283 303 326 301 314 315 317 324 331 339 343
169 170 170 170 168 170 166 164 157 150 147 151 154 155 151 149 148 137 125 115 104 95 107 112 136 155 155 154 143 141 272 303 288 295 339 301 310 311 315 313 324 339 343
163 165 166 165 164 163 161 156 149 144 140 140 143 147 148 149 150 140 132 127 113 93 89 97 95 89 77 71 71 62 21 7 331 315 353 319 310 315 305 298 315 332 338
157 154 157 161 160 158 159 154 147 143 140 138 134 142 148 148 150 145 140 139 137 133 114 93 76 63 54 47 48 62 80 26 329 305 324 331 314 330 319 300 302 313 323